| time (UTC) | temp C | wind direction | speed KPH | gust KPH | rain 1hr cm | rain 24hr cm | rain mn cm | humidity % | barometer mb |
| 20260502164259 | 33 | 0.0 | 0.0 | 0.00 | 0.00 | 0.00 | 27 | 813.6 | |
| 20260502163245 | 34 | 0.0 | 0.0 | 0.00 | 0.00 | 0.00 | 27 | 813.7 | |
| 20260502162231 | 35 | 0.0 | 0.0 | 0.00 | 0.00 | 0.00 | 27 | 813.8 | |
| 20260502161216 | 35 | 0.0 | 0.0 | 0.00 | 0.00 | 0.00 | 25 | 813.8 | |
| 20260502160202 | 34 | 0.0 | 0.0 | 0.00 | 0.00 | 0.00 | 27 | 813.4 | |
| 20260502152047 | 32 | 0.0 | 0.0 | 0.00 | 0.00 | 0.00 | 31 | 814.0 | |
| 20260502130735 | 26 | 0.0 | 0.0 | 0.00 | 0.00 | 0.00 | 49 | 813.4 | |
| 20260502123652 | 25 | 0.0 | 0.0 | 0.00 | 0.00 | 0.00 | 52 | 813.2 | |
| 20260502122638 | 25 | 0.0 | 0.0 | 0.00 | 0.00 | 0.00 | 53 | 812.8 | |
| 20260502121623 | 24 | 0.0 | 0.0 | 0.00 | 0.00 | 0.00 | 55 | 813.1 | |
| 20260502120609 | 25 | 0.0 | 0.0 | 0.00 | 0.00 | 0.00 | 53 | 812.5 | |
| 20260502115555 | 24 | 0.0 | 0.0 | 0.00 | 0.00 | 0.00 | 54 | 812.6 | |
| 20260502114541 | 25 | 0.0 | 0.0 | 0.00 | 0.00 | 0.00 | 54 | 812.6 | |
| 20260502113527 | 25 | 0.0 | 0.0 | 0.00 | 0.00 | 0.00 | 53 | 812.5 | |
| 20260502112513 | 25 | 0.0 | 0.0 | 0.00 | 0.00 | 0.00 | 53 | 812.4 | |
| 20260502111458 | 24 | 0.0 | 0.0 | 0.00 | 0.00 | 0.00 | 53 | 812.4 | |
| 20260502110444 | 24 | 0.0 | 0.0 | 0.00 | 0.00 | 0.00 | 52 | 811.8 | |
| 20260502105430 | 25 | 0.0 | 0.0 | 0.00 | 0.00 | 0.00 | 51 | 812.2 | |
| 20260502104416 | 25 | 0.0 | 0.0 | 0.00 | 0.00 | 0.00 | 52 | 812.1 | |
| 20260502103401 | 24 | 0.0 | 0.0 | 0.00 | 0.00 | 0.00 | 50 | 811.5 | |
| 20260502102347 | 25 | 0.0 | 0.0 | 0.00 | 0.00 | 0.00 | 49 | 811.9 | |
| 20260502101333 | 25 | 0.0 | 0.0 | 0.00 | 0.00 | 0.00 | 47 | 811.8 | |
| 20260502100319 | 25 | 0.0 | 0.0 | 0.00 | 0.00 | 0.00 | 47 | 811.4 | |
| 20260502091208 | 25 | 0.0 | 0.0 | 0.00 | 0.00 | 0.00 | 45 | 811.1 | |
| 20260502090154 | 24 | 0.0 | 0.0 | 0.00 | 0.00 | 0.00 | 43 | 811.3 | |
| 20260502070918 | 27 | 0.0 | 0.0 | 0.00 | 0.00 | 0.00 | 34 | 811.8 | |
| 20260502065903 | 27 | 0.0 | 0.0 | 0.00 | 0.00 | 0.00 | 32 | 811.8 | |
| 20260502064849 | 27 | 0.0 | 0.0 | 0.00 | 0.00 | 0.00 | 31 | 811.9 | |
| 20260502063835 | 28 | 0.0 | 0.0 | 0.00 | 0.00 | 0.00 | 29 | 811.7 | |
| 20260502062821 | 28 | 0.0 | 0.0 | 0.00 | 0.00 | 0.00 | 29 | 811.7 | |
| 20260502061807 | 28 | 0.0 | 0.0 | 0.00 | 0.00 | 0.00 | 29 | 811.8 | |
| 20260502060753 | 28 | 0.0 | 0.0 | 0.00 | 0.00 | 0.00 | 29 | 811.4 | |
| 20260502055738 | 28 | 0.0 | 0.0 | 0.00 | 0.00 | 0.00 | 28 | 811.5 | |
| 20260502054724 | 28 | 0.0 | 0.0 | 0.00 | 0.00 | 0.00 | 27 | 811.9 | |
| 20260502053710 | 28 | 0.0 | 0.0 | 0.00 | 0.00 | 0.00 | 26 | 811.4 | |
| 20260502052656 | 28 | 0.0 | 0.0 | 0.00 | 0.00 | 0.00 | 26 | 811.4 | |
| 20260502051642 | 29 | 0.0 | 0.0 | 0.00 | 0.00 | 0.00 | 26 | 811.9 | |
| 20260502050627 | 28 | 0.0 | 0.0 | 0.00 | 0.00 | 0.00 | 24 | 811.3 | |
| 20260502045613 | 28 | 0.0 | 0.0 | 0.00 | 0.00 | 0.00 | 26 | 811.6 | |
| 20260502044559 | 28 | 0.0 | 0.0 | 0.00 | 0.00 | 0.00 | 25 | 811.5 | |
| 20260502043545 | 30 | 0.0 | 0.0 | 0.00 | 0.00 | 0.00 | 26 | 811.4 | |
| 20260502042530 | 30 | 0.0 | 0.0 | 0.00 | 0.00 | 0.00 | 25 | 811.4 | |
| 20260502041516 | 29 | 0.0 | 0.0 | 0.00 | 0.00 | 0.00 | 24 | 811.2 | |
| 20260502040502 | 29 | 0.0 | 0.0 | 0.00 | 0.00 | 0.00 | 23 | 811.1 | |
| 20260502035448 | 30 | 0.0 | 0.0 | 0.00 | 0.00 | 0.00 | 22 | 811.1 | |
| 20260502034431 | 30 | 0.0 | 0.0 | 0.00 | 0.00 | 0.00 | 25 | 811.2 | |
| 20260502032402 | 30 | 0.0 | 0.0 | 0.00 | 0.00 | 0.00 | 27 | 810.6 | |
| 20260502031348 | 30 | 0.0 | 0.0 | 0.00 | 0.00 | 0.00 | 26 | 810.3 | |
| 20260502030334 | 30 | 0.0 | 0.0 | 0.00 | 0.00 | 0.00 | 26 | 810.6 | |
| 20260502025320 | 30 | 0.0 | 0.0 | 0.00 | 0.00 | 0.00 | 26 | 810.4 | |
| 20260502024305 | 30 | 0.0 | 0.0 | 0.00 | 0.00 | 0.00 | 26 | 810.3 | |
| 20260502023251 | 30 | 0.0 | 0.0 | 0.00 | 0.00 | 0.00 | 26 | 810.1 | |
| 20260502022237 | 30 | 0.0 | 0.0 | 0.00 | 0.00 | 0.00 | 26 | 810.1 | |
| 20260502021228 | 29 | 0.0 | 0.0 | 0.00 | 0.00 | 0.00 | 26 | 809.0 | |
| 20260502020208 | 30 | 0.0 | 0.0 | 0.00 | 0.00 | 0.00 | 27 | 809.5 | |
| 20260502015154 | 30 | 0.0 | 0.0 | 0.00 | 0.00 | 0.00 | 27 | 809.7 | |
| 20260502014139 | 29 | 0.0 | 0.0 | 0.00 | 0.00 | 0.00 | 27 | 809.6 | |
| 20260502013125 | 28 | 0.0 | 0.0 | 0.00 | 0.00 | 0.00 | 27 | 808.2 | |
| 20260502012116 | 30 | 0.0 | 0.0 | 0.00 | 0.00 | 0.00 | 27 | 809.4 | |
| 20260502011056 | 30 | 0.0 | 0.0 | 0.00 | 0.00 | 0.00 | 27 | 809.4 | |
| 20260502010042 | 30 | 0.0 | 0.0 | 0.00 | 0.00 | 0.00 | 27 | 809.3 | |
| 20260502005028 | 30 | 0.0 | 0.0 | 0.00 | 0.00 | 0.00 | 26 | 809.2 | |
| 20260502004014 | 30 | 0.0 | 0.0 | 0.00 | 0.00 | 0.00 | 26 | 808.6 | |
| 20260502002959 | 30 | 0.0 | 0.0 | 0.00 | 0.00 | 0.00 | 26 | 808.7 | |
| 20260502001945 | 30 | 0.0 | 0.0 | 0.00 | 0.00 | 0.00 | 25 | 808.4 | |
| 20260502000931 | 31 | 0.0 | 0.0 | 0.00 | 0.00 | 0.00 | 25 | 808.3 | |
| 20260501235916 | 31 | 0.0 | 0.0 | 0.00 | 0.00 | 0.00 | 24 | 808.3 | |
| 20260501234902 | 31 | 0.0 | 0.0 | 0.00 | 0.00 | 0.00 | 24 | 808.2 | |
| 20260501233848 | 31 | 0.0 | 0.0 | 0.00 | 0.00 | 0.00 | 23 | 807.8 | |
| 20260501232834 | 30 | 0.0 | 0.0 | 0.00 | 0.00 | 0.00 | 24 | 807.2 | |
| 20260501231819 | 32 | 0.0 | 0.0 | 0.00 | 0.00 | 0.00 | 22 | 808.2 | |
| 20260501230805 | 31 | 0.0 | 0.0 | 0.00 | 0.00 | 0.00 | 23 | 808.1 | |
| 20260501225751 | 30 | 0.0 | 0.0 | 0.00 | 0.00 | 0.00 | 22 | 806.6 | |
| 20260501224737 | 32 | 0.0 | 0.0 | 0.00 | 0.00 | 0.00 | 21 | 807.6 | |
| 20260501222708 | 32 | 0.0 | 0.0 | 0.00 | 0.00 | 0.00 | 20 | 807.8 | |
| 20260501221654 | 32 | 0.0 | 0.0 | 0.00 | 0.00 | 0.00 | 20 | 807.9 | |
| 20260501220639 | 33 | 0.0 | 0.0 | 0.00 | 0.00 | 0.00 | 20 | 807.3 | |
| 20260501213553 | 32 | 0.0 | 0.0 | 0.00 | 0.00 | 0.00 | 22 | 808.4 | |
| 20260501212539 | 31 | 0.0 | 0.0 | 0.00 | 0.00 | 0.00 | 22 | 807.6 | |
| 20260501204423 | 33 | 0.0 | 0.0 | 0.00 | 0.00 | 0.00 | 22 | 808.9 | |
| 20260501202351 | 32 | 0.0 | 0.0 | 0.00 | 0.00 | 0.00 | 23 | 809.1 | |
| 20260501201337 | 32 | 0.0 | 0.0 | 0.00 | 0.00 | 0.00 | 23 | 809.2 | |
| 20260501200323 | 32 | 0.0 | 0.0 | 0.00 | 0.00 | 0.00 | 23 | 809.3 | |
| 20260501195308 | 33 | 0.0 | 0.0 | 0.00 | 0.00 | 0.00 | 22 | 809.4 | |
| 20260501194254 | 33 | 0.0 | 0.0 | 0.00 | 0.00 | 0.00 | 23 | 809.6 | |
| 20260501193240 | 35 | 0.0 | 0.0 | 0.00 | 0.00 | 0.00 | 21 | 809.8 | |
| 20260501192225 | 36 | 0.0 | 0.0 | 0.00 | 0.00 | 0.00 | 20 | 810.1 | |
| 20260501191211 | 33 | 0.0 | 0.0 | 0.00 | 0.00 | 0.00 | 24 | 810.2 | |
| 20260501190157 | 32 | 0.0 | 0.0 | 0.00 | 0.00 | 0.00 | 23 | 810.0 | |
| 20260501185143 | 34 | 0.0 | 0.0 | 0.00 | 0.00 | 0.00 | 22 | 810.5 | |
| 20260501184128 | 36 | 0.0 | 0.0 | 0.00 | 0.00 | 0.00 | 22 | 810.6 | |
| 20260501183114 | 33 | 0.0 | 0.0 | 0.00 | 0.00 | 0.00 | 25 | 810.8 | |
| 20260501182100 | 33 | 0.0 | 0.0 | 0.00 | 0.00 | 0.00 | 23 | 810.8 | |
| 20260501180031 | 33 | 0.0 | 0.0 | 0.00 | 0.00 | 0.00 | 22 | 811.2 | |
| 20260501175017 | 32 | 0.0 | 0.0 | 0.00 | 0.00 | 0.00 | 23 | 811.4 | |
| 20260501174003 | 31 | 0.0 | 0.0 | 0.00 | 0.00 | 0.00 | 23 | 810.7 | |
| 20260501172949 | 32 | 0.0 | 0.0 | 0.00 | 0.00 | 0.00 | 24 | 811.6 |